This is the latest recevied weather packets stored in our database for station/object OK1UOJ. If no packets are shown the sender has not sent any weather packets the latest 10 day(s).
| Time | Temp. | Humidity | Pressure | Rain* | Wind** | Luminosity | Snow |
|---|---|---|---|---|---|---|---|
| 1777819889 | 23.89° C | 35% | 1016.5 hPa | - | - | - | - |
| 1777819884 | 23.89° C | 35% | 1016.5 hPa | - | - | - | - |
| 1777819327 | 23.89° C | 34% | 1016.5 hPa | - | - | - | - |
| 1777819053 | 23.89° C | 34% | 1016.6 hPa | - | - | - | - |
| 1777819049 | 23.89° C | 34% | 1016.6 hPa | - | - | - | - |
| 1777818491 | 23.89° C | 35% | 1016.7 hPa | - | - | - | - |
| 1777817103 | 24.44° C | 34% | 1016.9 hPa | - | - | - | - |
| 1777817103 | 24.44° C | 34% | 1016.9 hPa | - | - | - | - |
| 1777817098 | 24.44° C | 34% | 1016.9 hPa | - | - | - | - |
| 1777816820 | 23.89° C | 35% | 1017 hPa | - | - | - | - |
| 1777816263 | 24.44° C | 35% | 1017.1 hPa | - | - | - | - |
| 1777815984 | 24.44° C | 34% | 1017.1 hPa | - | - | - | - |
| 1777815705 | 24.44° C | 34% | 1017.1 hPa | - | - | - | - |
| 1777813755 | 24.44° C | 38% | 1017.5 hPa | - | - | - | - |
| 1777813202 | 24.44° C | 36% | 1017.5 hPa | - | - | - | - |
| 1777813197 | 24.44° C | 36% | 1017.5 hPa | - | - | - | - |
| 1777812919 | 24.44° C | 43% | 1017.5 hPa | - | - | - | - |
| 1777812640 | 24.44° C | 39% | 1017.6 hPa | - | - | - | - |
| 1777810694 | 23.89° C | 39% | 1018.2 hPa | - | - | - | - |
| 1777810689 | 23.89° C | 39% | 1018.2 hPa | - | - | - | - |
| 1777810132 | 23.89° C | 43% | 1018.3 hPa | - | - | - | - |
| 1777809858 | 23.89° C | 39% | 1018.3 hPa | - | - | - | - |
| 1777809853 | 23.89° C | 39% | 1018.3 hPa | - | - | - | - |
| 1777809579 | 23.89° C | 42% | 1018.3 hPa | - | - | - | - |
| 1777809575 | 23.89° C | 42% | 1018.3 hPa | - | - | - | - |
* Rain since midnight (hover to see other rain measurements)
** Current wind speed in m/s (hover to see current wind gust speed)